Location: Bay Shore Mobile Home Park
(38.5762°N, 75.0841°W)
Time: 08:02:59
(UTC+00:00)

SL-4 R/B - Pass Details

Date: 15 November 2025
Orbit: 387 x 527 km, 51.6° (Epoch: 04 December)

Event Time Altitude Azimuth Distance (km) Brightness Sun altitude
Rises 23:05:49 0° 295° (WNW) 2,399 6.2 -15.5°
Reaches altitude 10° 23:08:14 10° 278° (W) 1,557 5.5 -16.0°
Maximum altitude 23:10:54 21° 228° (SW) 1,087 4.3 -16.5°
Drops below altitude 10° 23:13:40 10° 179° (S) 1,616 4.5 -17.0°
Sets 23:16:14 0° 162° (SSE) 2,520 5.3 -17.5°
